User: anonymous   Login
Location: Newark
(50.9000°N, 14.8333°E)
Time: 14:07:24
(UTC+00:00)
Language:

ISS - Orbit

View from above orbital plane
View from above orbital plane
View from above satellite
View from above satellite

Ground track
Ground track

The orbit data is extracted from the following two-line orbital elements,

1 25544U 98067A   20335.51070959  .00016717  00000-0  10270-3 0  9039
2 25544  51.6444 245.4997 0001882  87.8343 272.3023 15.49106064 17797
Epoch (UTC): 30 November 2020 12:15:25
Eccentricity: 0.0001882
inclination: 51.6444°
perigee height: 418 km
apogee height: 420 km
right ascension of ascending node: 245.4997°
argument of perigee: 87.8343°
revolutions per day: 15.49106064
mean anomaly at epoch: 272.3023°
orbit number at epoch: 1779

The dashed part of the orbit path shows where the satellite is in the earth's shadow,  

DLR